Location: Ferintosh
(52.7647°N, 112.9692°W)
Time: 18:11:52
(UTC+00:00)

A-11 Canister half - Pass Details

Date: 30 May 2024
Orbit: 1515 x 1685 km, 47.2° (Epoch: 12 June)

Event Time Altitude Azimuth Distance (km) Brightness Sun altitude
Rises 05:56:42 0° 189° (S) 4,838 - -12.7°
Reaches altitude 10° 06:00:57 10° 174° (S) 3,825 - -12.9°
Exits shadow 06:03:46 16° 158° (SSE) 3,331 10.1 -13.1°
Maximum altitude 06:07:18 20° 132° (SE) 3,069 10.1 -13.3°
Drops below altitude 10° 06:13:31 10° 90° (E) 3,747 10.8 -13.6°
Sets 06:17:35 0° 75° (ENE) 4,709 11.5 -13.8°
